• In Russia
  • List of Countries
  • For 7 days
  • Water Temperature
  • Satellite Maps
  • Weather Map
  • Weather Widgets
  • user-avatar
    Login

    Hourly Weather Rangpur

    Today, 13 December, Thursday

    Time Temperature Precipitation Wind Pressure Humidity
    00:00 +20°C° 0 mm 2 mps 759 mmHg 61%
    01:00 +20°C° 0 mm 2 mps 759 mmHg 60%
    02:00 +20°C° 0 mm 2 mps 759 mmHg 59%
    03:00 +19°C° 0 mm 2 mps 759 mmHg 58%
    04:00 +19°C° 0 mm 2 mps 759 mmHg 58%
    05:00 +19°C° 0 mm 2 mps 759 mmHg 58%
    06:00 +18°C° 0 mm 2 mps 759 mmHg 59%
    07:00 +20°C° 0 mm 3 mps 759 mmHg 56%
    08:00 +21°C° 0 mm 3 mps 760 mmHg 53%
    09:00 +22°C° 0 mm 3 mps 760 mmHg 50%
    10:00 +25°C° 0 mm 3 mps 760 mmHg 47%
    11:00 +26°C° 0 mm 3 mps 759 mmHg 43%
    12:00 +28°C° 0 mm 3 mps 759 mmHg 40%
    13:00 +28°C° 0 mm 3 mps 759 mmHg 38%
    14:00 +29°C° 0 mm 2 mps 758 mmHg 37%
    15:00 +29°C° 0 mm 2 mps 757 mmHg 35%
    16:00 +28°C° 0 mm 2 mps 757 mmHg 39%
    17:00 +26°C° 0 mm 2 mps 757 mmHg 44%
    18:00 +25°C° 0 mm 2 mps 757 mmHg 48%
    19:00 +24°C° 0 mm 2 mps 758 mmHg 50%
    20:00 +24°C° 0 mm 2 mps 759 mmHg 52%
    21:00 +23°C° 0 mm 2 mps 759 mmHg 55%
    22:00 +21°C° 0 mm 2 mps 759 mmHg 55%
    23:00 +21°C° 0 mm 2 mps 760 mmHg 56%

    Tomorrow, 14 December, Friday

    Time Temperature Precipitation Wind Pressure Humidity
    00:00 +20°C° 0 mm 2 mps 760 mmHg 56%
    01:00 +20°C° 0 mm 2 mps 760 mmHg 55%
    02:00 +19°C° 0 mm 2 mps 759 mmHg 54%
    03:00 +19°C° 0 mm 2 mps 759 mmHg 52%
    04:00 +19°C° 0 mm 3 mps 759 mmHg 51%
    05:00 +18°C° 0 mm 3 mps 759 mmHg 51%
    06:00 +18°C° 0 mm 3 mps 759 mmHg 50%
    07:00 +19°C° 0 mm 3 mps 759 mmHg 47%
    08:00 +20°C° 0 mm 3 mps 760 mmHg 44%
    09:00 +22°C° 0 mm 3 mps 760 mmHg 42%
    10:00 +24°C° 0 mm 3 mps 760 mmHg 39%
    11:00 +26°C° 0 mm 3 mps 760 mmHg 36%
    12:00 +28°C° 0 mm 3 mps 760 mmHg 33%
    13:00 +28°C° 0 mm 3 mps 759 mmHg 32%
    14:00 +28°C° 0 mm 2 mps 759 mmHg 32%
    15:00 +28°C° 0 mm 2 mps 758 mmHg 31%
    16:00 +27°C° 0 mm 2 mps 758 mmHg 35%
    17:00 +26°C° 0 mm 2 mps 758 mmHg 38%
    18:00 +24°C° 0 mm 1 mps 759 mmHg 41%
    19:00 +24°C° 0 mm 1 mps 759 mmHg 43%
    20:00 +23°C° 0 mm 1 mps 760 mmHg 46%
    21:00 +22°C° 0 mm 1 mps 760 mmHg 48%
    22:00 +22°C° 0 mm 1 mps 761 mmHg 48%
    23:00 +21°C° 0 mm 1 mps 761 mmHg 49%

    Day after tomorrow, 15 December, Saturday

    Time Temperature Precipitation Wind Pressure Humidity
    00:00 +21°C° 0 mm 1 mps 761 mmHg 50%
    01:00 +19°C° 0 mm 2 mps 761 mmHg 50%
    02:00 +19°C° 0 mm 2 mps 760 mmHg 50%
    03:00 +18°C° 0 mm 2 mps 760 mmHg 50%
    04:00 +18°C° 0 mm 2 mps 760 mmHg 50%
    05:00 +18°C° 0 mm 2 mps 760 mmHg 50%
    06:00 +17°C° 0 mm 2 mps 760 mmHg 50%
    07:00 +19°C° 0 mm 2 mps 761 mmHg 48%
    08:00 +20°C° 0 mm 3 mps 761 mmHg 45%
    09:00 +21°C° 0 mm 3 mps 762 mmHg 42%
    10:00 +24°C° 0 mm 3 mps 761 mmHg 39%
    11:00 +25°C° 0 mm 3 mps 761 mmHg 35%
    12:00 +27°C° 0 mm 3 mps 761 mmHg 32%
    13:00 +27°C° 0 mm 3 mps 760 mmHg 31%
    14:00 +28°C° 0 mm 3 mps 759 mmHg 30%
    15:00 +28°C° 0 mm 3 mps 759 mmHg 29%
    16:00 +27°C° 0 mm 3 mps 759 mmHg 33%
    17:00 +25°C° 0 mm 2 mps 759 mmHg 36%
    18:00 +24°C° 0 mm 2 mps 759 mmHg 39%
    19:00 +23°C° 0 mm 2 mps 760 mmHg 40%
    20:00 +23°C° 0 mm 2 mps 761 mmHg 41%
    21:00 +21°C° 0 mm 2 mps 761 mmHg 42%
    22:00 +21°C° 0 mm 2 mps 761 mmHg 41%
    23:00 +21°C° 0 mm 2 mps 761 mmHg 40%

    16 December, Sunday

    Time Temperature Precipitation Wind Pressure Humidity
    00:00 +21°C° 0 mm 2 mps 761 mmHg 40%
    01:00 +20°C° 0 mm 3 mps 761 mmHg 40%
    02:00 +20°C° 0 mm 3 mps 760 mmHg 40%
    03:00 +20°C° 0 mm 3 mps 760 mmHg 40%
    04:00 +19°C° 0 mm 3 mps 760 mmHg 40%
    05:00 +19°C° 0 mm 3 mps 760 mmHg 41%
    06:00 +19°C° 0 mm 3 mps 760 mmHg 42%
    07:00 +19°C° 0 mm 3 mps 761 mmHg 41%
    08:00 +20°C° 0 mm 3 mps 761 mmHg 41%
    09:00 +21°C° 0 mm 4 mps 762 mmHg 40%
    10:00 +22°C° 0 mm 4 mps 761 mmHg 38%
    11:00 +23°C° 0 mm 4 mps 761 mmHg 35%
    12:00 +26°C° 0 mm 4 mps 761 mmHg 33%
    13:00 +26°C° 0 mm 4 mps 760 mmHg 33%
    14:00 +26°C° 0 mm 3 mps 759 mmHg 34%
    15:00 +26°C° 0 mm 3 mps 759 mmHg 34%
    16:00 +25°C° 0 mm 2 mps 759 mmHg 37%
    17:00 +24°C° 0 mm 2 mps 759 mmHg 40%
    18:00 +23°C° 0 mm 1 mps 760 mmHg 43%
    19:00 +23°C° 0 mm 2 mps 760 mmHg 44%
    20:00 +23°C° 0 mm 2 mps 761 mmHg 44%
    21:00 +23°C° 0 mm 2 mps 761 mmHg 45%
    22:00 +21°C° 0 mm 2 mps 761 mmHg 45%
    23:00 +21°C° 0 mm 2 mps 760 mmHg 44%

    17 December, Monday

    Time Temperature Precipitation Wind Pressure Humidity
    00:00 +21°C° 0 mm 3 mps 760 mmHg 44%
    01:00 +21°C° 0 mm 2 mps 760 mmHg 43%
    02:00 +21°C° 0 mm 2 mps 759 mmHg 43%
    03:00 +21°C° 0 mm 2 mps 759 mmHg 42%
    04:00 +20°C° 0 mm 2 mps 759 mmHg 42%
    05:00 +20°C° 0 mm 2 mps 759 mmHg 42%
    06:00 +20°C° 0 mm 3 mps 759 mmHg 42%
    07:00 +21°C° 0 mm 2 mps 760 mmHg 43%
    08:00 +21°C° 0 mm 2 mps 761 mmHg 44%
    09:00 +21°C° 0 mm 2 mps 761 mmHg 45%
    10:00 +21°C° 0 mm 2 mps 761 mmHg 44%
    11:00 +22°C° 0 mm 3 mps 760 mmHg 42%
    12:00 +22°C° 0 mm 3 mps 760 mmHg 41%
    13:00 +22°C° 0.1 mm 3 mps 759 mmHg 42%
    14:00 +23°C° 0.1 mm 2 mps 759 mmHg 43%
    15:00 +23°C° 0.1 mm 2 mps 758 mmHg 44%
    16:00 +21°C° 0.2 mm 2 mps 759 mmHg 45%
    17:00 +21°C° 0.2 mm 3 mps 759 mmHg 47%
    18:00 +20°C° 0.2 mm 3 mps 759 mmHg 48%
    19:00 +20°C° 0.3 mm 4 mps 760 mmHg 51%
    20:00 +20°C° 0.3 mm 4 mps 760 mmHg 54%
    21:00 +19°C° 0.3 mm 5 mps 760 mmHg 58%
    22:00 +19°C° 1.1 mm 5 mps 760 mmHg 62%
    23:00 +17°C° 1.1 mm 5 mps 760 mmHg 66%

    18 December, Tuesday

    Time Temperature Precipitation Wind Pressure Humidity
    00:00 +17°C° 1.1 mm 5 mps 760 mmHg 70%
    01:00 +17°C° 1.6 mm 5 mps 759 mmHg 73%
    02:00 +16°C° 1.6 mm 5 mps 759 mmHg 76%
    03:00 +16°C° 1.6 mm 5 mps 758 mmHg 80%
    04:00 +16°C° 1.2 mm 5 mps 758 mmHg 81%
    05:00 +17°C° 1.2 mm 4 mps 758 mmHg 83%
    06:00 +17°C° 1.2 mm 4 mps 758 mmHg 84%
    07:00 +17°C° 1.8 mm 4 mps 759 mmHg 85%
    08:00 +17°C° 1.8 mm 4 mps 759 mmHg 86%
    09:00 +17°C° 1.8 mm 4 mps 760 mmHg 87%
    10:00 +17°C° 0.8 mm 4 mps 760 mmHg 87%
    11:00 +17°C° 0.8 mm 4 mps 759 mmHg 87%
    12:00 +17°C° 0.8 mm 4 mps 759 mmHg 87%
    13:00 +17°C° 0.6 mm 4 mps 758 mmHg 87%
    14:00 +17°C° 0.6 mm 4 mps 757 mmHg 86%
    15:00 +17°C° 0.6 mm 4 mps 757 mmHg 86%
    16:00 +17°C° 0.1 mm 3 mps 757 mmHg 87%
    17:00 +17°C° 0.1 mm 3 mps 757 mmHg 88%
    18:00 +17°C° 0.1 mm 2 mps 757 mmHg 88%
    19:00 +17°C° 0.1 mm 2 mps 757 mmHg 89%
    20:00 +17°C° 0.1 mm 2 mps 757 mmHg 89%
    21:00 +17°C° 0.1 mm 2 mps 758 mmHg 90%
    22:00 +17°C° 0 mm 2 mps 758 mmHg 91%
    23:00 +16°C° 0 mm 2 mps 758 mmHg 92%
    Show more